When you browse on this site, cookies collect data to enhance your experience and personalize the content and advertising you see.
Visit our Privacy Policy to learn more. By continuing to use the site, you agree to this use of cookies and data.
  • In Hungary
  • List of Countries
  • For 7 days
  • Water Temperature
  • Satellite Maps
  • Weather Map
  • News
  • Weather Widgets
  • user-avatar
    Login

    Hourly Weather Viknyany

    Today, 16 July, Tuesday

    Time Temperature Precipitation Wind Pressure Humidity
    00:00 +15°C° 0 mm 2 mps 731 mmHg 97%
    01:00 +14°C° 0 mm 2 mps 731 mmHg 100%
    02:00 +14°C° 0 mm 2 mps 731 mmHg 100%
    03:00 +13°C° 0 mm 2 mps 731 mmHg 100%
    04:00 +13°C° 0 mm 2 mps 731 mmHg 100%
    05:00 +12°C° 0 mm 1 mps 731 mmHg 100%
    06:00 +13°C° 0 mm 1 mps 730 mmHg 100%
    07:00 +14°C° 0 mm 1 mps 731 mmHg 99%
    08:00 +15°C° 0 mm 1 mps 731 mmHg 98%
    09:00 +18°C° 0 mm 1 mps 731 mmHg 96%
    10:00 +19°C° 0 mm 2 mps 732 mmHg 92%
    11:00 +20°C° 0 mm 2 mps 732 mmHg 83%
    12:00 +20°C° 0 mm 2 mps 731 mmHg 79%
    13:00 +21°C° 0 mm 2 mps 731 mmHg 77%
    14:00 +21°C° 0 mm 2 mps 730 mmHg 74%
    15:00 +23°C° 0 mm 2 mps 730 mmHg 74%
    16:00 +23°C° 0 mm 2 mps 730 mmHg 72%
    17:00 +23°C° 0 mm 2 mps 729 mmHg 78%
    18:00 +21°C° 0 mm 2 mps 729 mmHg 78%
    19:00 +22°C° 0 mm 1 mps 729 mmHg 83%
    20:00 +21°C° 0 mm 1 mps 729 mmHg 88%
    21:00 +21°C° 0 mm 1 mps 729 mmHg 83%
    22:00 +19°C° 0.8 mm 4 mps 729 mmHg 92%
    23:00 +17°C° 8.5 mm 3 mps 729 mmHg 96%

    Tomorrow, 17 July, Wednesday

    Time Temperature Precipitation Wind Pressure Humidity
    00:00 +17°C° 3 mm 3 mps 730 mmHg 97%
    01:00 +16°C° 2.9 mm 3 mps 729 mmHg 97%
    02:00 +16°C° 0 mm 3 mps 729 mmHg 98%
    03:00 +16°C° 0 mm 3 mps 729 mmHg 97%
    04:00 +16°C° 0 mm 3 mps 729 mmHg 97%
    05:00 +14°C° 0 mm 3 mps 729 mmHg 98%
    06:00 +14°C° 0 mm 4 mps 729 mmHg 98%
    07:00 +15°C° 0 mm 4 mps 730 mmHg 97%
    08:00 +15°C° 0 mm 4 mps 730 mmHg 97%
    09:00 +15°C° 0 mm 4 mps 730 mmHg 94%
    10:00 +17°C° 0 mm 4 mps 730 mmHg 90%
    11:00 +18°C° 0 mm 4 mps 730 mmHg 87%
    12:00 +19°C° 0 mm 4 mps 730 mmHg 84%
    13:00 +20°C° 0 mm 3 mps 730 mmHg 81%
    14:00 +20°C° 0 mm 3 mps 730 mmHg 74%
    15:00 +21°C° 0 mm 2 mps 729 mmHg 75%
    16:00 +21°C° 0 mm 3 mps 729 mmHg 77%
    17:00 +21°C° 0 mm 4 mps 729 mmHg 80%
    18:00 +21°C° 0 mm 3 mps 729 mmHg 84%
    19:00 +20°C° 0 mm 4 mps 729 mmHg 84%
    20:00 +19°C° 0 mm 3 mps 729 mmHg 89%
    21:00 +18°C° 0 mm 4 mps 729 mmHg 90%
    22:00 +17°C° 0 mm 3 mps 730 mmHg 93%
    23:00 +16°C° 0 mm 3 mps 730 mmHg 94%

    Day after tomorrow, 18 July, Thursday

    Time Temperature Precipitation Wind Pressure Humidity
    00:00 +15°C° 0 mm 4 mps 730 mmHg 95%
    01:00 +14°C° 0 mm 3 mps 730 mmHg 96%
    02:00 +14°C° 0 mm 3 mps 730 mmHg 98%
    03:00 +13°C° 0 mm 3 mps 730 mmHg 99%
    04:00 +13°C° 0 mm 3 mps 730 mmHg 100%
    05:00 +12°C° 0 mm 3 mps 730 mmHg 100%
    06:00 +13°C° 0 mm 3 mps 730 mmHg 99%
    07:00 +14°C° 0 mm 4 mps 731 mmHg 98%
    08:00 +15°C° 0 mm 4 mps 731 mmHg 96%
    09:00 +17°C° 0 mm 4 mps 731 mmHg 96%
    10:00 +17°C° 0 mm 4 mps 732 mmHg 93%
    11:00 +18°C° 0 mm 4 mps 732 mmHg 91%
    12:00 +19°C° 0 mm 4 mps 732 mmHg 85%
    13:00 +19°C° 0 mm 4 mps 732 mmHg 83%
    14:00 +20°C° 0 mm 4 mps 732 mmHg 80%
    15:00 +20°C° 0 mm 4 mps 732 mmHg 79%
    16:00 +20°C° 0 mm 4 mps 732 mmHg 77%
    17:00 +20°C° 0 mm 3 mps 732 mmHg 80%
    18:00 +20°C° 0 mm 2 mps 732 mmHg 79%
    19:00 +21°C° 0 mm 1 mps 732 mmHg 84%
    20:00 +20°C° 0 mm 1 mps 733 mmHg 86%
    21:00 +19°C° 0 mm 1 mps 733 mmHg 87%
    22:00 +17°C° 0 mm 0 mps 733 mmHg 88%
    23:00 +16°C° 0 mm 0 mps 734 mmHg 89%

    19 July, Friday

    Time Temperature Precipitation Wind Pressure Humidity
    00:00 +16°C° 0 mm 0 mps 734 mmHg 91%
    01:00 +16°C° 0 mm 0 mps 733 mmHg 92%
    02:00 +16°C° 0 mm 1 mps 733 mmHg 95%
    03:00 +15°C° 0 mm 1 mps 733 mmHg 97%
    04:00 +15°C° 0 mm 1 mps 733 mmHg 98%
    05:00 +14°C° 0 mm 1 mps 733 mmHg 98%
    06:00 +15°C° 0 mm 2 mps 733 mmHg 99%
    07:00 +16°C° 0 mm 2 mps 734 mmHg 98%
    08:00 +17°C° 0 mm 2 mps 734 mmHg 96%
    09:00 +19°C° 0 mm 3 mps 734 mmHg 94%
    10:00 +20°C° 0 mm 3 mps 735 mmHg 92%
    11:00 +21°C° 0 mm 3 mps 734 mmHg 94%
    12:00 +21°C° 0 mm 3 mps 734 mmHg 93%
    13:00 +22°C° 0 mm 3 mps 734 mmHg 89%
    14:00 +24°C° 0 mm 3 mps 733 mmHg 87%

    20 July, Saturday

    Time Temperature Precipitation Wind Pressure Humidity

    21 July, Sunday

    Time Temperature Precipitation Wind Pressure Humidity
    Show more